Location: Bydgoszcz
(53.1167°N, 18.0000°E)
Time: 23:40:36
(UTC+01:00)

ISS - Visible Passes

Search period start: 21 January 2018 00:00
Search period end: 31 January 2018 00:00
Orbit: 402 x 407 km, 51.6° (Epoch: 22 January)

Date Brightness Start Highest point End Pass type
(mag) Time Alt. Az. Time Alt. Az. Time Alt. Az.
26 Jan -1.0 18:56:03 10° SSW 18:56:24 12° SSW 18:56:24 12° SSW visible
27 Jan -1.7 18:04:38 10° S 18:06:25 14° SE 18:06:25 14° SE visible
28 Jan -2.1 18:47:07 10° SW 18:49:02 26° SSW 18:49:02 26° SSW visible
29 Jan -2.3 17:55:11 10° SSW 17:57:52 23° SSE 17:58:54 20° ESE visible
29 Jan -1.0 19:30:44 10° WSW 19:31:34 16° WSW 19:31:34 16° WSW visible
30 Jan -1.7 17:03:34 10° S 17:05:41 16° SE 17:07:48 10° ESE visible
30 Jan -3.2 18:38:28 10° WSW 18:41:23 46° S 18:41:23 46° S visible
